owner,sensor,date,latitude,longitude,vertical_datum,sea_water_temperature,qcFlag 
TABS,ioos:station:wmo:42049:1,2005-09-18T12:00:00Z,28.3507,-96.0058,-2.0,29.76,11111222 
TABS,ioos:station:wmo:42049:1,2005-09-18T12:30:00Z,28.3507,-96.0058,-2.0,29.86,11111222 
TABS,ioos:station:wmo:42049:1,2005-09-18T13:00:00Z,28.3507,-96.0058,-2.0,29.82,11111222 
TABS,ioos:station:wmo:42049:1,2005-09-18T13:30:00Z,28.3507,-96.0058,-2.0,29.82,11111222 
TABS,ioos:station:wmo:42049:1,2005-09-18T14:00:00Z,28.3507,-96.0058,-2.0,29.82,11111222 
TABS,ioos:station:wmo:42049:1,2005-09-18T14:30:00Z,28.3507,-96.0058,-2.0,29.83,11111222 
TABS,ioos:station:wmo:42049:1,2005-09-18T15:00:00Z,28.3507,-96.0058,-2.0,29.85,11111222 
TABS,ioos:station:wmo:42049:1,2005-09-18T15:30:00Z,28.3507,-96.0058,-2.0,30.04,11111222 
TABS,ioos:station:wmo:42049:1,2005-09-18T16:00:00Z,28.3507,-96.0058,-2.0,29.95,11111222 
TABS,ioos:station:wmo:42049:1,2005-09-18T16:30:00Z,28.3507,-96.0058,-2.0,30.14,11111222 
TABS,ioos:station:wmo:42049:1,2005-09-18T17:00:00Z,28.3507,-96.0058,-2.0,30.0,11111222 
TABS,ioos:station:wmo:42049:1,2005-09-18T17:30:00Z,28.3507,-96.0058,-2.0,30.1,11111222 
TABS,ioos:station:wmo:42049:1,2005-09-18T18:00:00Z,28.3507,-96.0058,-2.0,30.17,11111222 
TABS,ioos:station:wmo:42049:1,2005-09-18T18:30:00Z,28.3507,-96.0058,-2.0,30.27,11111222 
TABS,ioos:station:wmo:42049:1,2005-09-18T19:00:00Z,28.3507,-96.0058,-2.0,30.32,11111222 
TABS,ioos:station:wmo:42049:1,2005-09-18T19:30:00Z,28.3507,-96.0058,-2.0,30.34,11111222 
TABS,ioos:station:wmo:42049:1,2005-09-18T20:00:00Z,28.3507,-96.0058,-2.0,30.4,11111222 
TABS,ioos:station:wmo:42049:1,2005-09-18T20:30:00Z,28.3507,-96.0058,-2.0,30.36,11111222 
TABS,ioos:station:wmo:42049:1,2005-09-18T21:00:00Z,28.3507,-96.0058,-2.0,30.32,11111222 
TABS,ioos:station:wmo:42049:1,2005-09-18T21:30:00Z,28.3507,-96.0058,-2.0,30.25,11111222 
TABS,ioos:station:wmo:42049:1,2005-09-18T22:00:00Z,28.3507,-96.0058,-2.0,30.45,11111222 
TABS,ioos:station:wmo:42049:1,2005-09-18T22:30:00Z,28.3507,-96.0058,-2.0,30.45,11111222 
TABS,ioos:station:wmo:42049:1,2005-09-18T23:00:00Z,28.3507,-96.0058,-2.0,30.16,11111222 
TABS,ioos:station:wmo:42049:1,2005-09-18T23:30:00Z,28.3507,-96.0058,-2.0,30.1,11111222 
TABS,ioos:station:wmo:42049:1,2005-09-19T00:00:00Z,28.3507,-96.0058,-2.0,30.07,11111222 
TABS,ioos:station:wmo:42049:1,2005-09-19T00:30:00Z,28.3507,-96.0058,-2.0,30.01,11111222 
TABS,ioos:station:wmo:42049:1,2005-09-19T01:00:00Z,28.3507,-96.0058,-2.0,29.98,11111222 
TABS,ioos:station:wmo:42049:1,2005-09-19T01:30:00Z,28.3507,-96.0058,-2.0,29.96,11111222 
TABS,ioos:station:wmo:42049:1,2005-09-19T02:00:00Z,28.3507,-96.0058,-2.0,29.94,11111222 
TABS,ioos:station:wmo:42049:1,2005-09-19T02:30:00Z,28.3507,-96.0058,-2.0,29.94,11111222 
TABS,ioos:station:wmo:42049:1,2005-09-19T03:00:00Z,28.3507,-96.0058,-2.0,30.02,11111222 
TABS,ioos:station:wmo:42049:1,2005-09-19T03:30:00Z,28.3507,-96.0058,-2.0,30.09,11111222 
TABS,ioos:station:wmo:42049:1,2005-09-19T04:00:00Z,28.3507,-96.0058,-2.0,30.08,11111222 
TABS,ioos:station:wmo:42049:1,2005-09-19T04:30:00Z,28.3507,-96.0058,-2.0,30.06,11111222 
TABS,ioos:station:wmo:42049:1,2005-09-19T05:00:00Z,28.3507,-96.0058,-2.0,30.04,11111222 
TABS,ioos:station:wmo:42049:1,2005-09-19T05:30:00Z,28.3507,-96.0058,-2.0,30.06,11111222 
TABS,ioos:station:wmo:42049:1,2005-09-19T06:00:00Z,28.3507,-96.0058,-2.0,30.08,11111222 
TABS,ioos:station:wmo:42049:1,2005-09-19T06:30:00Z,28.3507,-96.0058,-2.0,30.09,11111222 
TABS,ioos:station:wmo:42049:1,2005-09-19T07:00:00Z,28.3507,-96.0058,-2.0,30.07,11111222 
TABS,ioos:station:wmo:42049:1,2005-09-19T07:30:00Z,28.3507,-96.0058,-2.0,30.06,11111222 
TABS,ioos:station:wmo:42049:1,2005-09-19T08:00:00Z,28.3507,-96.0058,-2.0,30.06,11111222 
TABS,ioos:station:wmo:42049:1,2005-09-19T08:30:00Z,28.3507,-96.0058,-2.0,30.06,11111222 
TABS,ioos:station:wmo:42049:1,2005-09-19T09:00:00Z,28.3507,-96.0058,-2.0,30.05,11111222 
TABS,ioos:station:wmo:42049:1,2005-09-19T09:30:00Z,28.3507,-96.0058,-2.0,30.06,11111222 
TABS,ioos:station:wmo:42049:1,2005-09-19T10:00:00Z,28.3507,-96.0058,-2.0,30.06,11111222 
TABS,ioos:station:wmo:42049:1,2005-09-19T10:30:00Z,28.3507,-96.0058,-2.0,30.04,11111222 
TABS,ioos:station:wmo:42049:1,2005-09-19T11:00:00Z,28.3507,-96.0058,-2.0,30.03,11111222 
TABS,ioos:station:wmo:42049:1,2005-09-19T11:30:00Z,28.3507,-96.0058,-2.0,30.03,11111222 
TABS,ioos:station:wmo:42049:1,2005-09-19T12:00:00Z,28.3507,-96.0058,-2.0,30.02,11111222 
TABS,ioos:station:wmo:42049:1,2005-09-19T12:30:00Z,28.3507,-96.0058,-2.0,30.02,11111222 
TABS,ioos:station:wmo:42049:1,2005-09-19T13:00:00Z,28.3507,-96.0058,-2.0,30.0,11111222 
TABS,ioos:station:wmo:42049:1,2005-09-19T13:30:00Z,28.3507,-96.0058,-2.0,30.0,11111222 
TABS,ioos:station:wmo:42049:1,2005-09-19T14:00:00Z,28.3507,-96.0058,-2.0,29.99,11111222 
TABS,ioos:station:wmo:42049:1,2005-09-19T14:30:00Z,28.3507,-96.0058,-2.0,29.99,11111222 
TABS,ioos:station:wmo:42049:1,2005-09-19T15:00:00Z,28.3507,-96.0058,-2.0,30.0,11111222 
TABS,ioos:station:wmo:42049:1,2005-09-19T15:30:00Z,28.3507,-96.0058,-2.0,30.01,11111222 
TABS,ioos:station:wmo:42049:1,2005-09-19T16:00:00Z,28.3507,-96.0058,-2.0,30.03,11111222 
TABS,ioos:station:wmo:42049:1,2005-09-19T16:30:00Z,28.3507,-96.0058,-2.0,29.86,11111222 
TABS,ioos:station:wmo:42049:1,2005-09-19T17:00:00Z,28.3507,-96.0058,-2.0,29.92,11111222 
TABS,ioos:station:wmo:42049:1,2005-09-19T17:30:00Z,28.3507,-96.0058,-2.0,29.95,11111222 
TABS,ioos:station:wmo:42049:1,2005-09-19T18:00:00Z,28.3507,-96.0058,-2.0,30.04,11111222 
TABS,ioos:station:wmo:42049:1,2005-09-19T18:30:00Z,28.3507,-96.0058,-2.0,30.1,11111222 
TABS,ioos:station:wmo:42049:1,2005-09-19T19:00:00Z,28.3507,-96.0058,-2.0,30.14,11111222 
TABS,ioos:station:wmo:42049:1,2005-09-19T19:30:00Z,28.3507,-96.0058,-2.0,30.18,11111222 
TABS,ioos:station:wmo:42049:1,2005-09-19T20:00:00Z,28.3507,-96.0058,-2.0,30.18,11111222 
TABS,ioos:station:wmo:42049:1,2005-09-19T20:30:00Z,28.3507,-96.0058,-2.0,30.19,11111222 
TABS,ioos:station:wmo:42049:1,2005-09-19T21:00:00Z,28.3507,-96.0058,-2.0,30.19,11111222 
TABS,ioos:station:wmo:42049:1,2005-09-19T21:30:00Z,28.3507,-96.0058,-2.0,30.18,11111222 
TABS,ioos:station:wmo:42049:1,2005-09-19T22:00:00Z,28.3507,-96.0058,-2.0,30.18,11111222 
TABS,ioos:station:wmo:42049:1,2005-09-19T22:30:00Z,28.3507,-96.0058,-2.0,30.15,11111222 
TABS,ioos:station:wmo:42049:1,2005-09-19T23:00:00Z,28.3507,-96.0058,-2.0,30.13,11111222 
TABS,ioos:station:wmo:42049:1,2005-09-19T23:30:00Z,28.3507,-96.0058,-2.0,30.09,11111222 
TABS,ioos:station:wmo:42049:1,2005-09-20T00:00:00Z,28.3507,-96.0058,-2.0,30.04,11111222 
TABS,ioos:station:wmo:42049:1,2005-09-20T00:30:00Z,28.3507,-96.0058,-2.0,29.94,11111222 
TABS,ioos:station:wmo:42049:1,2005-09-20T01:00:00Z,28.3507,-96.0058,-2.0,29.93,11111222 
TABS,ioos:station:wmo:42049:1,2005-09-20T01:30:00Z,28.3507,-96.0058,-2.0,29.92,11111222 
TABS,ioos:station:wmo:42049:1,2005-09-20T02:00:00Z,28.3507,-96.0058,-2.0,29.93,11111222 
TABS,ioos:station:wmo:42049:1,2005-09-20T02:30:00Z,28.3507,-96.0058,-2.0,29.92,11111222 
TABS,ioos:station:wmo:42049:1,2005-09-20T03:00:00Z,28.3507,-96.0058,-2.0,29.99,11111222 
TABS,ioos:station:wmo:42049:1,2005-09-20T03:30:00Z,28.3507,-96.0058,-2.0,29.98,11111222 
TABS,ioos:station:wmo:42049:1,2005-09-20T04:00:00Z,28.3507,-96.0058,-2.0,29.97,11111222 
TABS,ioos:station:wmo:42049:1,2005-09-20T04:30:00Z,28.3507,-96.0058,-2.0,29.94,11111222 
TABS,ioos:station:wmo:42049:1,2005-09-20T05:00:00Z,28.3507,-96.0058,-2.0,29.93,11111222 
TABS,ioos:station:wmo:42049:1,2005-09-20T05:30:00Z,28.3507,-96.0058,-2.0,29.92,11111222 
TABS,ioos:station:wmo:42049:1,2005-09-20T06:00:00Z,28.3507,-96.0058,-2.0,29.91,11111222 
TABS,ioos:station:wmo:42049:1,2005-09-20T06:30:00Z,28.3507,-96.0058,-2.0,29.9,11111222 
TABS,ioos:station:wmo:42049:1,2005-09-20T07:00:00Z,28.3507,-96.0058,-2.0,29.89,11111222 
TABS,ioos:station:wmo:42049:1,2005-09-20T07:30:00Z,28.3507,-96.0058,-2.0,29.87,11111222 
TABS,ioos:station:wmo:42049:1,2005-09-20T08:00:00Z,28.3507,-96.0058,-2.0,29.85,11111222 
TABS,ioos:station:wmo:42049:1,2005-09-20T08:30:00Z,28.3507,-96.0058,-2.0,29.85,11111222 
TABS,ioos:station:wmo:42049:1,2005-09-20T09:00:00Z,28.3507,-96.0058,-2.0,29.82,11111222 
TABS,ioos:station:wmo:42049:1,2005-09-20T09:30:00Z,28.3507,-96.0058,-2.0,29.81,11111222 
TABS,ioos:station:wmo:42049:1,2005-09-20T10:00:00Z,28.3507,-96.0058,-2.0,29.78,11111222 
TABS,ioos:station:wmo:42049:1,2005-09-20T10:30:00Z,28.3507,-96.0058,-2.0,29.78,11111222 
TABS,ioos:station:wmo:42049:1,2005-09-20T11:00:00Z,28.3507,-96.0058,-2.0,29.75,11111222 
TABS,ioos:station:wmo:42049:1,2005-09-20T11:30:00Z,28.3507,-96.0058,-2.0,29.76,11111222 
TABS,ioos:station:wmo:42049:1,2005-09-20T12:00:00Z,28.3507,-96.0058,-2.0,29.71,11111222 
TABS,ioos:station:wmo:42049:1,2005-09-20T12:30:00Z,28.3507,-96.0058,-2.0,29.71,11111222 
TABS,ioos:station:wmo:42049:1,2005-09-20T13:00:00Z,28.3507,-96.0058,-2.0,29.71,11111222 
TABS,ioos:station:wmo:42049:1,2005-09-20T13:30:00Z,28.3507,-96.0058,-2.0,29.71,11111222 
TABS,ioos:station:wmo:42049:1,2005-09-20T14:00:00Z,28.3507,-96.0058,-2.0,29.73,11111222 
TABS,ioos:station:wmo:42049:1,2005-09-20T14:30:00Z,28.3507,-96.0058,-2.0,29.74,11111222 
TABS,ioos:station:wmo:42049:1,2005-09-20T15:00:00Z,28.3507,-96.0058,-2.0,29.75,11111222 
TABS,ioos:station:wmo:42049:1,2005-09-20T15:30:00Z,28.3507,-96.0058,-2.0,29.79,11111222 
TABS,ioos:station:wmo:42049:1,2005-09-20T16:00:00Z,28.3507,-96.0058,-2.0,29.8,11111222 
TABS,ioos:station:wmo:42049:1,2005-09-20T16:30:00Z,28.3507,-96.0058,-2.0,29.85,11111222 
TABS,ioos:station:wmo:42049:1,2005-09-20T17:00:00Z,28.3507,-96.0058,-2.0,29.86,11111222 
TABS,ioos:station:wmo:42049:1,2005-09-20T18:00:00Z,28.3507,-96.0058,-2.0,29.93,11111222 
TABS,ioos:station:wmo:42049:1,2005-09-20T18:30:00Z,28.3507,-96.0058,-2.0,29.99,11111222 
TABS,ioos:station:wmo:42049:1,2005-09-20T19:00:00Z,28.3507,-96.0058,-2.0,30.04,11111222 
TABS,ioos:station:wmo:42049:1,2005-09-20T19:30:00Z,28.3507,-96.0058,-2.0,30.03,11111222 
TABS,ioos:station:wmo:42049:1,2005-09-20T20:00:00Z,28.3507,-96.0058,-2.0,30.05,11111222 
TABS,ioos:station:wmo:42049:1,2005-09-20T20:30:00Z,28.3507,-96.0058,-2.0,30.04,11111222 
TABS,ioos:station:wmo:42049:1,2005-09-20T21:00:00Z,28.3507,-96.0058,-2.0,30.07,11111222 
TABS,ioos:station:wmo:42049:1,2005-09-20T21:30:00Z,28.3507,-96.0058,-2.0,30.11,11111222 
TABS,ioos:station:wmo:42049:1,2005-09-20T22:00:00Z,28.3507,-96.0058,-2.0,30.11,11111222 
TABS,ioos:station:wmo:42049:1,2005-09-20T22:30:00Z,28.3507,-96.0058,-2.0,30.08,11111222 
TABS,ioos:station:wmo:42049:1,2005-09-20T23:00:00Z,28.3507,-96.0058,-2.0,30.09,11111222 
TABS,ioos:station:wmo:42049:1,2005-09-20T23:30:00Z,28.3507,-96.0058,-2.0,30.15,11111222 
TABS,ioos:station:wmo:42049:1,2005-09-21T00:00:00Z,28.3507,-96.0058,-2.0,30.14,11111222 
TABS,ioos:station:wmo:42049:1,2005-09-21T00:30:00Z,28.3507,-96.0058,-2.0,30.1,11111222 
TABS,ioos:station:wmo:42049:1,2005-09-21T01:00:00Z,28.3507,-96.0058,-2.0,30.04,11111222 
TABS,ioos:station:wmo:42049:1,2005-09-21T01:30:00Z,28.3507,-96.0058,-2.0,30.03,11111222 
TABS,ioos:station:wmo:42049:1,2005-09-21T02:00:00Z,28.3507,-96.0058,-2.0,30.01,11111222 
TABS,ioos:station:wmo:42049:1,2005-09-21T02:30:00Z,28.3507,-96.0058,-2.0,30.01,11111222 
TABS,ioos:station:wmo:42049:1,2005-09-21T03:00:00Z,28.3507,-96.0058,-2.0,30.0,11111222 
TABS,ioos:station:wmo:42049:1,2005-09-21T03:30:00Z,28.3507,-96.0058,-2.0,29.98,11111222 
TABS,ioos:station:wmo:42049:1,2005-09-21T04:00:00Z,28.3507,-96.0058,-2.0,29.98,11111222 
TABS,ioos:station:wmo:42049:1,2005-09-21T04:30:00Z,28.3507,-96.0058,-2.0,29.96,11111222 
TABS,ioos:station:wmo:42049:1,2005-09-21T05:00:00Z,28.3507,-96.0058,-2.0,29.95,11111222 
TABS,ioos:station:wmo:42049:1,2005-09-21T05:30:00Z,28.3507,-96.0058,-2.0,29.92,11111222 
TABS,ioos:station:wmo:42049:1,2005-09-21T06:00:00Z,28.3507,-96.0058,-2.0,29.92,11111222 
TABS,ioos:station:wmo:42049:1,2005-09-21T06:30:00Z,28.3507,-96.0058,-2.0,29.9,11111222 
TABS,ioos:station:wmo:42049:1,2005-09-21T07:00:00Z,28.3507,-96.0058,-2.0,29.88,11111222 
TABS,ioos:station:wmo:42049:1,2005-09-21T07:30:00Z,28.3507,-96.0058,-2.0,29.88,11111222 
TABS,ioos:station:wmo:42049:1,2005-09-21T08:00:00Z,28.3507,-96.0058,-2.0,29.9,11111222 
TABS,ioos:station:wmo:42049:1,2005-09-21T08:30:00Z,28.3507,-96.0058,-2.0,29.88,11111222 
TABS,ioos:station:wmo:42049:1,2005-09-21T09:00:00Z,28.3507,-96.0058,-2.0,29.87,11111222 
TABS,ioos:station:wmo:42049:1,2005-09-21T09:30:00Z,28.3507,-96.0058,-2.0,29.85,11111222 
TABS,ioos:station:wmo:42049:1,2005-09-21T10:00:00Z,28.3507,-96.0058,-2.0,29.83,11111222 
TABS,ioos:station:wmo:42049:1,2005-09-21T10:30:00Z,28.3507,-96.0058,-2.0,29.82,11111222 
TABS,ioos:station:wmo:42049:1,2005-09-21T11:00:00Z,28.3507,-96.0058,-2.0,29.81,11111222 
TABS,ioos:station:wmo:42049:1,2005-09-21T11:30:00Z,28.3507,-96.0058,-2.0,29.79,11111222 
TABS,ioos:station:wmo:42049:1,2005-09-21T12:00:00Z,28.3507,-96.0058,-2.0,29.78,11111222 
TABS,ioos:station:wmo:42049:1,2005-09-21T12:30:00Z,28.3507,-96.0058,-2.0,29.76,11111222 
TABS,ioos:station:wmo:42049:1,2005-09-21T13:00:00Z,28.3507,-96.0058,-2.0,29.75,11111222 
TABS,ioos:station:wmo:42049:1,2005-09-21T13:30:00Z,28.3507,-96.0058,-2.0,29.76,11111222 
TABS,ioos:station:wmo:42049:1,2005-09-21T14:00:00Z,28.3507,-96.0058,-2.0,29.77,11111222 
TABS,ioos:station:wmo:42049:1,2005-09-21T14:30:00Z,28.3507,-96.0058,-2.0,29.79,11111222 
TABS,ioos:station:wmo:42049:1,2005-09-21T15:00:00Z,28.3507,-96.0058,-2.0,29.81,11111222 
TABS,ioos:station:wmo:42049:1,2005-09-21T15:30:00Z,28.3507,-96.0058,-2.0,29.83,11111222 
TABS,ioos:station:wmo:42049:1,2005-09-21T16:00:00Z,28.3507,-96.0058,-2.0,29.86,11111222 
TABS,ioos:station:wmo:42049:1,2005-09-21T16:30:00Z,28.3507,-96.0058,-2.0,29.9,11111222 
TABS,ioos:station:wmo:42049:1,2005-09-21T17:00:00Z,28.3507,-96.0058,-2.0,29.93,11111222 
TABS,ioos:station:wmo:42049:1,2005-09-21T17:30:00Z,28.3507,-96.0058,-2.0,29.97,11111222 
TABS,ioos:station:wmo:42049:1,2005-09-21T18:00:00Z,28.3507,-96.0058,-2.0,30.05,11111222 
TABS,ioos:station:wmo:42049:1,2005-09-21T18:30:00Z,28.3507,-96.0058,-2.0,30.07,11111222 
TABS,ioos:station:wmo:42049:1,2005-09-21T19:00:00Z,28.3507,-96.0058,-2.0,30.14,11111222 
TABS,ioos:station:wmo:42049:1,2005-09-21T19:30:00Z,28.3507,-96.0058,-2.0,30.19,11111222 
TABS,ioos:station:wmo:42049:1,2005-09-21T20:00:00Z,28.3507,-96.0058,-2.0,30.24,11111222 
TABS,ioos:station:wmo:42049:1,2005-09-21T20:30:00Z,28.3507,-96.0058,-2.0,30.3,11111222 
TABS,ioos:station:wmo:42049:1,2005-09-21T21:00:00Z,28.3507,-96.0058,-2.0,30.4,11111222 
TABS,ioos:station:wmo:42049:1,2005-09-21T21:30:00Z,28.3507,-96.0058,-2.0,30.53,11111222 
TABS,ioos:station:wmo:42049:1,2005-09-21T22:00:00Z,28.3507,-96.0058,-2.0,30.59,11111222 
TABS,ioos:station:wmo:42049:1,2005-09-21T22:30:00Z,28.3507,-96.0058,-2.0,30.76,11111222 
TABS,ioos:station:wmo:42049:1,2005-09-21T23:00:00Z,28.3507,-96.0058,-2.0,30.72,11111222 
TABS,ioos:station:wmo:42049:1,2005-09-21T23:30:00Z,28.3507,-96.0058,-2.0,30.73,11111222 
TABS,ioos:station:wmo:42049:1,2005-09-22T00:00:00Z,28.3507,-96.0058,-2.0,30.71,11111222 
TABS,ioos:station:wmo:42049:1,2005-09-22T00:30:00Z,28.3507,-96.0058,-2.0,30.67,11111222 
TABS,ioos:station:wmo:42049:1,2005-09-22T01:00:00Z,28.3507,-96.0058,-2.0,30.56,11111222 
TABS,ioos:station:wmo:42049:1,2005-09-22T01:30:00Z,28.3507,-96.0058,-2.0,30.48,11111222 
TABS,ioos:station:wmo:42049:1,2005-09-22T02:00:00Z,28.3507,-96.0058,-2.0,30.25,11111222 
TABS,ioos:station:wmo:42049:1,2005-09-22T02:30:00Z,28.3507,-96.0058,-2.0,30.07,11111222 
TABS,ioos:station:wmo:42049:1,2005-09-22T03:00:00Z,28.3507,-96.0058,-2.0,29.98,11111222 
TABS,ioos:station:wmo:42049:1,2005-09-22T03:30:00Z,28.3507,-96.0058,-2.0,29.95,11111222 
TABS,ioos:station:wmo:42049:1,2005-09-22T04:00:00Z,28.3507,-96.0058,-2.0,29.92,11111222 
TABS,ioos:station:wmo:42049:1,2005-09-22T04:30:00Z,28.3507,-96.0058,-2.0,29.95,11111222 
TABS,ioos:station:wmo:42049:1,2005-09-22T05:00:00Z,28.3507,-96.0058,-2.0,29.95,11111222 
TABS,ioos:station:wmo:42049:1,2005-09-22T05:30:00Z,28.3507,-96.0058,-2.0,29.95,11111222 
TABS,ioos:station:wmo:42049:1,2005-09-22T06:00:00Z,28.3507,-96.0058,-2.0,29.96,11111222 
TABS,ioos:station:wmo:42049:1,2005-09-22T06:30:00Z,28.3507,-96.0058,-2.0,29.95,11111222 
TABS,ioos:station:wmo:42049:1,2005-09-22T07:00:00Z,28.3507,-96.0058,-2.0,29.94,11111222 
TABS,ioos:station:wmo:42049:1,2005-09-22T07:30:00Z,28.3507,-96.0058,-2.0,29.93,11111222 
TABS,ioos:station:wmo:42049:1,2005-09-22T08:00:00Z,28.3507,-96.0058,-2.0,29.92,11111222 
TABS,ioos:station:wmo:42049:1,2005-09-22T08:30:00Z,28.3507,-96.0058,-2.0,29.91,11111222 
TABS,ioos:station:wmo:42049:1,2005-09-22T09:00:00Z,28.3507,-96.0058,-2.0,29.91,11111222 
TABS,ioos:station:wmo:42049:1,2005-09-22T09:30:00Z,28.3507,-96.0058,-2.0,29.9,11111222 
TABS,ioos:station:wmo:42049:1,2005-09-22T10:00:00Z,28.3507,-96.0058,-2.0,29.9,11111222 
TABS,ioos:station:wmo:42049:1,2005-09-22T10:30:00Z,28.3507,-96.0058,-2.0,29.89,11111222 
TABS,ioos:station:wmo:42049:1,2005-09-22T11:00:00Z,28.3507,-96.0058,-2.0,29.86,11111222 
TABS,ioos:station:wmo:42049:1,2005-09-22T11:30:00Z,28.3507,-96.0058,-2.0,29.89,11111222 
TABS,ioos:station:wmo:42049:1,2005-09-22T12:00:00Z,28.3507,-96.0058,-2.0,29.91,11111222 
TABS,ioos:station:wmo:42049:1,2005-09-22T12:30:00Z,28.3507,-96.0058,-2.0,29.9,11111222 
TABS,ioos:station:wmo:42049:1,2005-09-22T13:00:00Z,28.3507,-96.0058,-2.0,29.89,11111222 
TABS,ioos:station:wmo:42049:1,2005-09-22T13:30:00Z,28.3507,-96.0058,-2.0,29.89,11111222 
TABS,ioos:station:wmo:42049:1,2005-09-22T14:00:00Z,28.3507,-96.0058,-2.0,29.92,11111222 
TABS,ioos:station:wmo:42049:1,2005-09-22T14:30:00Z,28.3507,-96.0058,-2.0,29.93,11111222 
TABS,ioos:station:wmo:42049:1,2005-09-22T15:00:00Z,28.3507,-96.0058,-2.0,29.94,11111222 
TABS,ioos:station:wmo:42049:1,2005-09-22T15:30:00Z,28.3507,-96.0058,-2.0,29.99,11111222 
TABS,ioos:station:wmo:42049:1,2005-09-22T16:00:00Z,28.3507,-96.0058,-2.0,30.02,11111222 
TABS,ioos:station:wmo:42049:1,2005-09-22T16:30:00Z,28.3507,-96.0058,-2.0,30.06,11111222 
TABS,ioos:station:wmo:42049:1,2005-09-22T17:00:00Z,28.3507,-96.0058,-2.0,30.07,11111222 
TABS,ioos:station:wmo:42049:1,2005-09-22T17:30:00Z,28.3507,-96.0058,-2.0,30.1,11111222 
TABS,ioos:station:wmo:42049:1,2005-09-22T18:00:00Z,28.3507,-96.0058,-2.0,30.14,11111222 
TABS,ioos:station:wmo:42049:1,2005-09-22T18:30:00Z,28.3507,-96.0058,-2.0,30.17,11111222 
TABS,ioos:station:wmo:42049:1,2005-09-22T19:00:00Z,28.3507,-96.0058,-2.0,30.21,11111222 
TABS,ioos:station:wmo:42049:1,2005-09-22T19:30:00Z,28.3507,-96.0058,-2.0,30.23,11111222 
TABS,ioos:station:wmo:42049:1,2005-09-22T20:00:00Z,28.3507,-96.0058,-2.0,30.25,11111222 
TABS,ioos:station:wmo:42049:1,2005-09-22T20:30:00Z,28.3507,-96.0058,-2.0,30.36,11111222 
TABS,ioos:station:wmo:42049:1,2005-09-22T21:00:00Z,28.3507,-96.0058,-2.0,30.43,11111222 
TABS,ioos:station:wmo:42049:1,2005-09-22T21:30:00Z,28.3507,-96.0058,-2.0,30.43,11111222 
TABS,ioos:station:wmo:42049:1,2005-09-22T22:00:00Z,28.3507,-96.0058,-2.0,30.33,11111222 
TABS,ioos:station:wmo:42049:1,2005-09-22T22:30:00Z,28.3507,-96.0058,-2.0,30.26,11111222 
TABS,ioos:station:wmo:42049:1,2005-09-22T23:00:00Z,28.3507,-96.0058,-2.0,30.26,11111222 
TABS,ioos:station:wmo:42049:1,2005-09-22T23:30:00Z,28.3507,-96.0058,-2.0,30.26,11111222 
TABS,ioos:station:wmo:42049:1,2005-09-23T00:00:00Z,28.3507,-96.0058,-2.0,30.23,11111222 
TABS,ioos:station:wmo:42049:1,2005-09-23T00:30:00Z,28.3507,-96.0058,-2.0,30.22,11111222 
TABS,ioos:station:wmo:42049:1,2005-09-23T01:00:00Z,28.3507,-96.0058,-2.0,30.12,11111222 
TABS,ioos:station:wmo:42049:1,2005-09-23T01:30:00Z,28.3507,-96.0058,-2.0,30.08,11111222 
TABS,ioos:station:wmo:42049:1,2005-09-23T02:00:00Z,28.3507,-96.0058,-2.0,30.05,11111222 
TABS,ioos:station:wmo:42049:1,2005-09-23T02:30:00Z,28.3507,-96.0058,-2.0,30.02,11111222 
TABS,ioos:station:wmo:42049:1,2005-09-23T03:00:00Z,28.3507,-96.0058,-2.0,30.03,11111222 
TABS,ioos:station:wmo:42049:1,2005-09-23T03:30:00Z,28.3507,-96.0058,-2.0,30.01,11111222 
TABS,ioos:station:wmo:42049:1,2005-09-23T04:00:00Z,28.3507,-96.0058,-2.0,29.99,11111222 
TABS,ioos:station:wmo:42049:1,2005-09-23T04:30:00Z,28.3507,-96.0058,-2.0,29.95,11111222 
TABS,ioos:station:wmo:42049:1,2005-09-23T05:00:00Z,28.3507,-96.0058,-2.0,29.92,11111222 
TABS,ioos:station:wmo:42049:1,2005-09-23T05:30:00Z,28.3507,-96.0058,-2.0,29.87,11111222 
TABS,ioos:station:wmo:42049:1,2005-09-23T06:00:00Z,28.3507,-96.0058,-2.0,29.85,11111222 
TABS,ioos:station:wmo:42049:1,2005-09-23T06:30:00Z,28.3507,-96.0058,-2.0,29.87,11111222 
TABS,ioos:station:wmo:42049:1,2005-09-23T07:00:00Z,28.3507,-96.0058,-2.0,29.86,11111222 
TABS,ioos:station:wmo:42049:1,2005-09-23T07:30:00Z,28.3507,-96.0058,-2.0,29.85,11111222 
TABS,ioos:station:wmo:42049:1,2005-09-23T08:00:00Z,28.3507,-96.0058,-2.0,29.84,11111222 
TABS,ioos:station:wmo:42049:1,2005-09-23T08:30:00Z,28.3507,-96.0058,-2.0,29.91,11111222 
TABS,ioos:station:wmo:42049:1,2005-09-23T09:00:00Z,28.3507,-96.0058,-2.0,29.92,11111222 
TABS,ioos:station:wmo:42049:1,2005-09-23T09:30:00Z,28.3507,-96.0058,-2.0,29.87,11111222 
TABS,ioos:station:wmo:42049:1,2005-09-23T10:00:00Z,28.3507,-96.0058,-2.0,29.84,11111222 
TABS,ioos:station:wmo:42049:1,2005-09-23T10:30:00Z,28.3507,-96.0058,-2.0,29.8,11111222 
TABS,ioos:station:wmo:42049:1,2005-09-23T11:00:00Z,28.3507,-96.0058,-2.0,29.79,11111222 
TABS,ioos:station:wmo:42049:1,2005-09-23T11:30:00Z,28.3507,-96.0058,-2.0,29.81,11111222 
TABS,ioos:station:wmo:42049:1,2005-09-23T12:00:00Z,28.3507,-96.0058,-2.0,29.82,11111222 
TABS,ioos:station:wmo:42049:1,2005-09-23T12:30:00Z,28.3507,-96.0058,-2.0,29.77,11111222 
TABS,ioos:station:wmo:42049:1,2005-09-23T13:00:00Z,28.3507,-96.0058,-2.0,29.72,11111222 
TABS,ioos:station:wmo:42049:1,2005-09-23T13:30:00Z,28.3507,-96.0058,-2.0,29.7,11111222 
TABS,ioos:station:wmo:42049:1,2005-09-23T14:00:00Z,28.3507,-96.0058,-2.0,29.69,11111222 
TABS,ioos:station:wmo:42049:1,2005-09-23T14:30:00Z,28.3507,-96.0058,-2.0,29.68,11111222 
TABS,ioos:station:wmo:42049:1,2005-09-23T15:00:00Z,28.3507,-96.0058,-2.0,29.79,11111222 
TABS,ioos:station:wmo:42049:1,2005-09-23T15:30:00Z,28.3507,-96.0058,-2.0,29.76,11111222 
TABS,ioos:station:wmo:42049:1,2005-09-23T16:00:00Z,28.3507,-96.0058,-2.0,29.78,11111222 
TABS,ioos:station:wmo:42049:1,2005-09-23T16:30:00Z,28.3507,-96.0058,-2.0,29.77,11111222 
TABS,ioos:station:wmo:42049:1,2005-09-23T17:00:00Z,28.3507,-96.0058,-2.0,29.77,11111222 
TABS,ioos:station:wmo:42049:1,2005-09-23T17:30:00Z,28.3507,-96.0058,-2.0,29.79,11111222 
TABS,ioos:station:wmo:42049:1,2005-09-23T18:00:00Z,28.3507,-96.0058,-2.0,29.83,11111222 
TABS,ioos:station:wmo:42049:1,2005-09-23T18:30:00Z,28.3507,-96.0058,-2.0,29.88,11111222 
TABS,ioos:station:wmo:42049:1,2005-09-23T19:00:00Z,28.3507,-96.0058,-2.0,29.88,11111222 
TABS,ioos:station:wmo:42049:1,2005-09-23T19:30:00Z,28.3507,-96.0058,-2.0,29.81,11111222 
TABS,ioos:station:wmo:42049:1,2005-09-23T20:00:00Z,28.3507,-96.0058,-2.0,29.8,11111222 
TABS,ioos:station:wmo:42049:1,2005-09-23T20:30:00Z,28.3507,-96.0058,-2.0,29.85,11111222 
TABS,ioos:station:wmo:42049:1,2005-09-23T21:00:00Z,28.3507,-96.0058,-2.0,29.79,11111222 
TABS,ioos:station:wmo:42049:1,2005-09-23T21:30:00Z,28.3507,-96.0058,-2.0,29.76,11111222 
TABS,ioos:station:wmo:42049:1,2005-09-23T22:00:00Z,28.3507,-96.0058,-2.0,29.74,11111222 
TABS,ioos:station:wmo:42049:1,2005-09-23T22:30:00Z,28.3507,-96.0058,-2.0,29.69,11111222 
TABS,ioos:station:wmo:42049:1,2005-09-23T23:00:00Z,28.3507,-96.0058,-2.0,29.68,11111222 
TABS,ioos:station:wmo:42049:1,2005-09-23T23:30:00Z,28.3507,-96.0058,-2.0,29.7,11111222 
TABS,ioos:station:wmo:42049:1,2005-09-24T00:00:00Z,28.3507,-96.0058,-2.0,29.69,11111222 
TABS,ioos:station:wmo:42049:1,2005-09-24T00:30:00Z,28.3507,-96.0058,-2.0,29.69,11111222 
TABS,ioos:station:wmo:42049:1,2005-09-24T01:00:00Z,28.3507,-96.0058,-2.0,29.68,11111222 
TABS,ioos:station:wmo:42049:1,2005-09-24T01:30:00Z,28.3507,-96.0058,-2.0,29.65,11111222 
TABS,ioos:station:wmo:42049:1,2005-09-24T02:00:00Z,28.3507,-96.0058,-2.0,29.68,11111222 
TABS,ioos:station:wmo:42049:1,2005-09-24T02:30:00Z,28.3507,-96.0058,-2.0,29.7,11111222 